EW8226 Weather Reports


Display with metric or nautical units.
time (UTC)temp
F
wind
direction
speed
MPH
gust
MPH
rain 1hr
in
rain 24hr
in
rain mn
in
humidity
%
barometer
mb
20260506104615 58 355 0.0 4.0 0.00 0.00 0.00 58 1010.4
20260506104502 58 276 0.0 4.0 0.00 0.00 0.00 58 1010.3
20260506103100 58 42 0.0 2.0 0.00 0.00 0.00 57 1010.3
20260506101559 57 322 0.0 1.0 0.00 0.00 0.00 60 1010.4
20260506100058 58 5 0.0 1.0 0.00 0.00 0.00 60 1010.3
20260506094555 57 321 0.0 0.0 0.00 0.00 0.00 62 1010.2
20260506093046 57 348 0.0 0.0 0.00 0.00 0.00 61 1010.1
20260506091545 57 325 0.0 0.0 0.00 0.00 0.00 59 1010.0
20260506090045 58 355 0.0 1.0 0.00 0.00 0.00 58 1009.9
20260506084613 57 30 0.0 0.0 0.00 0.00 0.00 63 1009.8
20260506083043 56 86 0.0 1.0 0.00 0.00 0.00 68 1009.8
20260506081551 55 325 0.0 1.0 0.00 0.00 0.00 68 1009.8
20260506073039 53 360 0.0 0.0 0.00 0.00 0.00 72 1009.5
20260506071537 54 340 0.0 1.0 0.00 0.00 0.00 73 1009.5
20260506061533 50 11 0.0 1.0 0.00 0.00 0.00 82 1009.2
20260506044536 49 5 0.0 0.0 0.00 0.00 0.00 83 1008.9
20260506043027 49 360 0.0 0.0 0.00 0.00 0.00 82 1008.7
20260506041528 49 351 0.0 0.0 0.00 0.00 0.00 81 1008.7
20260506040033 49 20 0.0 0.0 0.00 0.00 0.00 81 1008.7
20260506034526 49 348 0.0 0.0 0.00 0.00 0.00 80 1008.7
20260506033027 49 321 0.0 0.0 0.00 0.00 0.00 80 1008.5
20260506031527 49 355 0.0 0.0 0.00 0.00 0.00 80 1008.6
20260506030026 50 23 0.0 0.0 0.00 0.00 0.00 80 1008.6
20260506024523 50 27 0.0 0.0 0.00 0.00 0.00 80 1008.6
20260506023036 50 31 0.0 0.0 0.00 0.00 0.00 80 1008.5
20260506021534 50 13 0.0 0.0 0.00 0.00 0.00 80 1008.5
20260506020026 50 345 0.0 1.0 0.00 0.00 0.00 80 1008.4
20260506014521 50 5 0.0 0.0 0.00 0.00 0.00 80 1008.4
20260506013027 50 61 0.0 0.0 0.00 0.00 0.00 79 1008.4
20260506011519 50 5 0.0 1.0 0.00 0.00 0.00 79 1008.5
20260506010019 50 40 0.0 0.0 0.00 0.00 0.00 79 1008.5
20260506004522 50 343 0.0 0.0 0.00 0.00 0.00 78 1008.5
20260506003017 51 5 0.0 0.0 0.00 0.00 0.00 78 1008.5
20260506001515 51 360 0.0 1.0 0.00 0.00 0.00 77 1008.5
20260506000013 51 348 0.0 0.0 0.00 0.00 0.00 77 1008.5
20260505234515 51 350 0.0 0.0 0.00 0.00 0.00 77 1008.5
20260505233012 52 308 0.0 0.0 0.00 0.00 0.00 77 1008.5
20260505231522 52 338 0.0 0.0 0.00 0.00 0.00 77 1008.5
20260505230021 52 329 0.0 0.0 0.00 0.00 0.00 77 1008.6
20260505224514 52 13 0.0 1.0 0.00 0.00 0.00 78 1008.5
20260505223008 53 348 0.0 0.0 0.00 0.00 0.00 79 1008.5
20260505221508 53 355 0.0 0.0 0.00 0.00 0.00 78 1008.5
20260505220008 53 40 0.0 0.0 0.00 0.00 0.00 79 1008.5
20260505214506 53 51 0.0 0.0 0.00 0.00 0.00 79 1008.5
20260505213014 53 5 0.0 0.0 0.00 0.00 0.00 79 1008.5
20260505211510 53 53 0.0 0.0 0.00 0.00 0.00 79 1008.5
20260505210008 54 5 0.0 0.0 0.00 0.00 0.00 79 1008.5
20260505204506 54 346 0.0 0.0 0.00 0.00 0.00 78 1008.6
20260505203003 54 309 0.0 0.0 0.00 0.00 0.00 78 1008.4
20260505201500 54 342 0.0 0.0 0.00 0.00 0.00 77 1008.3
20260505200025 54 360 0.0 1.0 0.00 0.00 0.00 77 1008.1
20260505194526 54 344 0.0 2.0 0.00 0.00 0.00 76 1008.0
20260505193030 55 348 0.0 1.0 0.00 0.00 0.00 77 1007.8
20260505191523 55 22 0.0 1.0 0.00 0.00 0.00 77 1007.7
20260505190052 55 360 0.0 1.0 0.00 0.00 0.00 77 1007.6
20260505184550 55 21 0.0 0.0 0.00 0.00 0.00 77 1007.5
20260505183049 55 19 0.0 1.0 0.00 0.00 0.00 76 1007.4
20260505181549 56 317 0.0 1.0 0.00 0.00 0.00 76 1007.3
20260505180011 57 344 0.0 1.0 0.00 0.00 0.00 76 1007.3
20260505174507 57 5 0.0 4.0 0.00 0.00 0.00 76 1007.3
20260505173005 57 321 0.0 1.0 0.00 0.00 0.00 76 1007.2
20260505171506 58 347 0.0 1.0 0.00 0.00 0.00 75 1007.2
20260505164544 57 28 0.0 0.0 0.00 0.00 0.00 76 1007.3
20260505163044 57 346 0.0 1.0 0.00 0.00 0.00 77 1007.2
20260505161541 57 337 0.0 0.0 0.00 0.00 0.00 77 1007.3
20260505153005 57 13 0.0 1.0 0.00 0.00 0.00 79 1007.4
20260505151503 58 342 0.0 1.0 0.00 0.00 0.00 78 1007.5
20260505124527 57 96 0.0 0.0 0.00 0.00 0.00 78 1008.1
20260505123026 57 37 0.0 0.0 0.00 0.00 0.00 79 1008.2
20260505121526 56 17 0.0 0.0 0.00 0.00 0.00 79 1008.3
20260505120024 57 9 0.0 1.0 0.00 0.00 0.00 79 1008.5
20260505114522 56 96 0.0 0.0 0.00 0.00 0.00 80 1008.5
20260505113022 55 35 0.0 1.0 0.00 0.00 0.00 81 1008.8
20260505111520 55 360 0.0 1.0 0.00 0.00 0.00 82 1008.8
20260505110119 56 326 0.0 0.0 0.00 0.00 0.00 81 1008.8